Regional Weather Roundup
Issued by NWS Boston, MA

Home | Current Version | Previous Version | Text Only | Print | Product List | Glossary On
Versions: 1 2 3 4 5 6 7 8 9 10 11 12 13 14 15 16 17 18 19 20 21 22 23 24 25 26 27 28 29 30 31 32 33 34 35 36 37 38 39 40 41 42 43 44 45 46 47 48 49 50
000
ASUS41 KBOX 261210
RWRBOX

REGIONAL WEATHER ROUNDUP
NATIONAL WEATHER SERVICE TAUNTON MA
800 AM EDT FRI MAY 26 2017

NOTE:  "FAIR" INDICATES FEW OR NO CLOUDS BELOW 12,000 FEET WITH NO
SIGNIFICANT WEATHER AND/OR OBSTRUCTIONS TO VISIBILITY.

MAZALL-261300-
EASTERN MASSACHUSETTS

CITY           SKY/WX    TMP DP  RH WIND       PRES   REMARKS
BOSTON         LGT RAIN  49  48  97 N13       29.48F FOG
6HR MIN TEMP:  49; 6HR MAX TEMP:  51; 6HR PCP:  0.33;

BEVERLY        CLOUDY    50  48  93 N15G24    29.47F
LAWRENCE       CLOUDY    50  47  89 N14       29.51F
BEDFORD        CLOUDY    49  45  86 N8        29.49S FOG
BLUE HILL        N/A     48  47  96 N9G18     29.46F
NORWOOD        CLOUDY    51  50  96 N6        29.47F FOG
MARSHFIELD     CLOUDY    52  52 100 VRB5      29.45F FOG
PLYMOUTH       LGT RAIN  51  50  96 N6        29.46F FOG
TAUNTON        CLOUDY    51  49  92 N6        29.46S
NEW BEDFORD    LGT RAIN  52  51  97 N6        29.44F
$$

MAZALL-261300-
CAPE COD AND THE ISLANDS

CITY           SKY/WX    TMP DP  RH WIND       PRES   REMARKS
FALMOUTH       CLOUDY    57  57 100 MISG      29.46F
HYANNIS        LGT RAIN  57  55  93 S13G20    29.45F
CHATHAM        CLOUDY    57  56  96 SW10G17   29.48F
PROVINCETOWN   CLOUDY    56  55  97 S9        29.46F FOG
NANTUCKET      LGT RAIN  55  53  93 SW15      29.48F FOG
MARTHAS VNYRD  CLOUDY    56  54  93 SW12      29.45F FOG
$$

MAZALL-261300-
CENTRAL AND WESTERN MASSACHUSETTS

CITY           SKY/WX    TMP DP  RH WIND       PRES   REMARKS
WORCESTER      LGT RAIN  46  44  93 N8        29.50R FOG
6HR MIN TEMP:  46; 6HR MAX TEMP:  47; 6HR PCP:  0.43;

FITCHBURG      LGT RAIN  50  47  89 N6        29.52S FOG
ORANGE         LGT RAIN  50  49  96 NW6       29.52S
SPRINGFIELD    LGT RAIN  51  50  94 N8        29.53R FOG
WESTFIELD      RAIN      52  51  97 N7        29.54R FOG
NORTH ADAMS    LGT RAIN  51  50  96 CALM      29.55R
PITTSFIELD     LGT RAIN  51  48  89 SW6       29.54R FOG
$$

RIZALL-261300-
RHODE ISLAND

CITY           SKY/WX    TMP DP  RH WIND       PRES   REMARKS
PROVIDENCE     RAIN      50  50 100 NW8       29.48S FOG
6HR MIN TEMP:  50; 6HR MAX TEMP:  52; 6HR PCP:  0.17;

NEWPORT        LGT RAIN  51  51 100 N8        29.45F
BLOCK ISLAND   LGT RAIN  52  52 100 NW8       29.48R
SMITHFIELD     LGT RAIN  48  48 100 N7        29.49S
WESTERLY       LGT RAIN  52  50  93 NW7       29.49R
$$

CTZALL-261300-
CONNECTICUT

CITY           SKY/WX    TMP DP  RH WIND       PRES   REMARKS
BRADLEY INTL   LGT RAIN  52  50  93 NW6       29.54R FOG
6HR MIN TEMP:  50; 6HR MAX TEMP:  52; 6HR PCP:  0.33;

HARTFORD       LGT RAIN  52  51  97 NW9       29.54R
BRIDGEPORT     LGT RAIN  55  51  86 NW6       29.55R
DANBURY        LGT RAIN  53  52  96 CALM      29.57R
GROTON         CLOUDY    52  49  89 N12       29.49R
NEW HAVEN      LGT RAIN  52  50  93 NW6       29.54R
CHESTER        LGT RAIN  52  50  93 NW9       29.52R
MERIDEN        LGT RAIN  52  50  93 NW6       29.55R
WILLIMANTIC    LGT RAIN  53  50  89 N7        29.52R
OXFORD         LGT RAIN  52  46  82 N5        29.56S FOG
$$

MEZ002-015-021-024-NHZ003-005-008-011-012-014-VTZ005-008-261300-
NORTHERN NEW ENGLAND

CITY           SKY/WX    TMP DP  RH WIND       PRES   REMARKS
PORTLAND ME    CLOUDY    50  46  86 NE18G29   29.54F
6HR MIN TEMP:  48; 6HR MAX TEMP:  50; 6HR PCP:  1.61;

BANGOR ME      RAIN      49  48  97 NE6       29.65R FOG
CONCORD NH     CLOUDY    51  47  86 E7        29.53R
MANCHESTER NH  LGT RAIN  50  46  86 NE7       29.51R FOG
NASHUA NH      LGT RAIN  48  48 100 N6        29.52F
PORTSMOUTH NH  LGT RAIN  48  46  93 NE14G24   29.50S FOG
JAFFREY NH     LGT RAIN  49  49 100 CALM      29.52S
KEENE NH       LGT RAIN  50  49  96 CALM      29.54R
BURLINGTON VT  RAIN      55  53  93 W3        29.56R FOG
MT. WASHINGTON NOT AVBL
$$

NYZ052-076-261300-
EASTERN NEW YORK

CITY           SKY/WX    TMP DP  RH WIND       PRES   REMARKS
ALBANY         LGT RAIN  54  51  90 NW7       29.56S
6HR MIN TEMP:  53; 6HR MAX TEMP:  54; 6HR PCP:  0.21;

NEW YORK CITY  CLOUDY    58  55  90 W7        29.57R
6HR MIN TEMP:  57; 6HR MAX TEMP:  58; 6HR PCP:  0.12;

$$

ANZALL-261300-
MARINE OBSERVATIONS

STATION/POSITION TIME  TEMP    WIND        PRES    VSBY  WAVE
                       AIR SEA DIR/SP/G                  HT/PER
                 (UTC) (F)     (DEG/KT/KT) (MB)    (MI)  (FT/S)
BOSTON BUOY      1150   50 52   10/ 16/ 17  996.8F         7/ 8
BUZZARDS BAY     1100   54     200/ 17/ 18  997.6F
NANTUCKET SOUND  1150      54               997.6F         2/ 3
MASS BAY-STELLWA 1104   49 50   20/ 16/ 17  997.5F         7/ 8
ISLE OF SHOALS   1100   47      40/ 31/ 36  997.6R
S OF BLOCK IS    1155      53                N/A           8/10
$$

......................KEY.........................
  SKY/WX - SKY CONDITION/PRESENT WEATHER
  TMP    - TEMPERATURE IN FAHRENHEIT
  DWPT   - DEWPOINT IN FAHRENHEIT
  RH     - RELATIVE HUMIDITY IN PERCENT
  WIND   - DIRECTION AND SPEED IN MPH
  PRES   - MEAN SEA LEVEL PRESSURE IN INCHES OF HG
  WCI    - WIND CHILL INDEX
  VSB    - VISIBILITY IN MILES
  HX     - HEAT INDEX
  TC     - TEMPERATURE IN CELSIUS
  VRB    - VARIABLE WIND DIRECTION
  N/A    - NOT AVAILABLE



USA.gov is the U.S. government's official web portal to all federal, state and local government web resources and services.